Date String (YYYY-MM-DD hh:mm:ss) UTC,Instrument flags,Ambient pressure (hPa),Sample flow (lpm),Bypass flow (lpm),Sample temperature (°C),Ambient temperature (°C),ASC tube jacket temperature (°C),LED temperature (°C),Box temperature (°C),Sample RH (%),Span deviation,Mass concentration (μg/m³),Mass concentration (μg/m³),Mass concentration (μg/m³)
DateTimeUTC,F1_M11,P_M11,Q1_M11,Q2_M11,T1_M11,T2_M11,T3_M11,T4_M11,T5_M11,U1_M11,ZSPAN_M11,X0_M11,X2_M11,X1_M11
2021-11-26 13:00:00,,0829.3,4.99,0.00,26.0,25.2,00.0,35.0,27.8,09.5,0000.0,0000.76,0000.52,0000.35
2021-11-26 13:01:00,,0829.3,5.01,0.00,26.0,25.2,00.0,35.0,27.8,09.4,0000.0,0000.75,0000.51,0000.35
2021-11-26 13:02:00,,0829.4,5.01,0.00,26.0,25.2,00.0,35.0,27.8,09.5,0000.0,0000.77,0000.51,0000.35
2021-11-26 13:03:00,,0829.4,4.98,0.00,26.0,25.2,00.0,35.0,27.8,09.5,0000.0,0000.68,0000.47,0000.34
2021-11-26 13:04:00,,0829.5,5.01,0.00,26.0,25.2,00.0,35.0,27.8,09.5,0000.0,0000.67,0000.46,0000.35
2021-11-26 13:05:00,,0829.5,5.00,0.00,26.0,25.2,00.0,35.0,27.8,09.4,0000.0,0000.72,0000.47,0000.35
2021-11-26 13:06:00,,0829.5,5.01,0.00,26.0,25.2,00.0,35.0,27.8,09.4,0000.0,0000.70,0000.46,0000.36
2021-11-26 13:07:00,,0829.5,4.99,0.00,26.1,25.2,00.0,35.0,27.8,09.4,0000.0,0000.82,0000.48,0000.35
2021-11-26 13:08:00,,0829.5,5.01,0.00,26.1,25.2,00.0,35.0,27.8,09.4,0000.0,0000.95,0000.50,0000.35
2021-11-26 13:09:00,,0829.5,4.98,0.00,26.1,25.2,00.0,35.0,27.8,09.4,0000.0,0001.11,0000.54,0000.36
2021-11-26 13:10:00,,0829.5,5.00,0.00,26.1,25.2,00.0,35.0,27.9,09.4,0000.0,0001.23,0000.59,0000.36
2021-11-26 13:11:00,,0829.5,5.01,0.00,26.1,25.2,00.0,35.0,27.9,09.4,0000.0,0001.29,0000.62,0000.36
2021-11-26 13:12:00,,0829.5,4.99,0.00,26.1,25.2,00.0,35.0,27.9,09.4,0000.0,0001.35,0000.63,0000.36
2021-11-26 13:13:00,,0829.5,4.99,0.00,26.1,25.2,00.0,35.0,27.9,09.4,0000.0,0001.36,0000.63,0000.36
2021-11-26 13:14:00,,0829.5,5.01,0.00,26.1,25.2,00.0,35.0,27.9,09.4,0000.0,0001.57,0000.65,0000.36
2021-11-26 13:15:00,,0829.4,4.99,0.00,26.1,25.2,00.0,35.0,27.9,09.3,0000.0,0002.16,0000.65,0000.35
2021-11-26 13:16:00,,0829.5,5.00,0.00,26.1,25.2,00.0,35.1,27.9,09.4,0000.0,0002.14,0000.65,0000.35
2021-11-26 13:17:00,,0829.5,5.01,0.00,26.1,25.2,00.0,35.1,27.9,09.4,0000.0,0002.16,0000.66,0000.35
2021-11-26 13:18:00,,0829.5,5.00,0.00,26.1,25.2,00.0,35.1,27.8,09.4,0000.0,0002.02,0000.63,0000.35
2021-11-26 13:19:00,,0829.5,5.01,0.00,26.1,25.2,00.0,35.0,27.8,09.3,0000.0,0001.97,0000.63,0000.36
2021-11-26 13:20:00,,0829.5,4.99,0.00,26.1,25.2,00.0,35.1,27.8,09.3,0000.0,0001.88,0000.60,0000.36
2021-11-26 13:21:00,,0829.5,5.01,0.00,26.1,25.2,00.0,35.0,27.8,09.3,0000.0,0001.70,0000.53,0000.36
2021-11-26 13:22:00,,0829.4,5.00,0.00,26.1,25.2,00.0,35.0,27.9,09.3,0000.0,0001.70,0000.52,0000.36
2021-11-26 13:23:00,,0829.4,4.99,0.00,26.1,25.2,00.0,35.1,27.9,09.3,0000.0,0001.73,0000.53,0000.36
2021-11-26 13:24:00,,0829.4,5.01,0.00,26.1,25.2,00.0,35.0,27.8,09.3,0000.0,0001.75,0000.54,0000.37
2021-11-26 13:25:00,,0829.3,4.99,0.00,26.1,25.2,00.0,35.0,27.8,09.3,0000.0,0001.50,0000.54,0000.37
2021-11-26 13:26:00,,0829.3,5.01,0.00,26.1,25.2,00.0,35.0,27.8,09.3,0000.0,0001.03,0000.55,0000.38
2021-11-26 13:27:00,,0829.3,4.99,0.00,26.0,25.2,00.0,35.0,27.8,09.3,0000.0,0001.08,0000.56,0000.38
2021-11-26 13:28:00,,0829.4,5.00,0.00,26.0,25.2,00.0,35.0,27.8,09.3,0000.0,0001.10,0000.57,0000.38
2021-11-26 13:29:00,,0829.4,5.00,0.00,26.0,25.2,00.0,35.0,27.8,09.3,0000.0,0001.37,0000.62,0000.39
2021-11-26 13:30:00,,0829.4,5.00,0.00,26.0,25.2,00.0,35.0,27.8,09.3,0000.0,0001.40,0000.63,0000.39
2021-11-26 13:31:00,,0829.4,5.00,0.00,26.0,25.2,00.0,35.0,27.8,09.3,0000.0,0001.42,0000.63,0000.39
2021-11-26 13:32:00,,0829.4,5.00,0.00,26.0,25.2,00.0,35.0,27.8,09.3,0000.0,0001.42,0000.63,0000.40
2021-11-26 13:33:00,,0829.4,5.01,0.00,26.0,25.2,00.0,35.0,27.8,09.3,0000.0,0001.39,0000.63,0000.40
2021-11-26 13:34:00,,0829.5,5.01,0.00,26.0,25.2,00.0,35.0,27.8,09.3,0000.0,0001.42,0000.64,0000.42
2021-11-26 13:35:00,,0829.5,4.98,0.00,26.0,25.2,00.0,35.0,27.8,09.3,0000.0,0001.36,0000.61,0000.41
2021-11-26 13:36:00,,0829.5,5.00,0.00,26.0,25.2,00.0,35.0,27.8,09.3,0000.0,0001.44,0000.62,0000.42
2021-11-26 13:37:00,,0829.5,5.01,0.00,26.0,25.2,00.0,35.0,27.8,09.4,0000.0,0001.55,0000.63,0000.43
2021-11-26 13:38:00,,0829.5,5.00,0.00,26.0,25.2,00.0,35.0,27.8,09.3,0000.0,0002.55,0000.62,0000.43
2021-11-26 13:39:00,,0829.5,5.00,0.00,26.0,25.1,00.0,35.0,27.8,09.4,0000.0,0003.39,0000.61,0000.42
2021-11-26 13:40:00,,0829.4,5.01,0.00,26.0,25.1,00.0,35.0,27.8,09.4,0000.0,0003.12,0000.56,0000.42
2021-11-26 13:41:00,,0829.4,4.99,0.00,26.0,25.1,00.0,35.0,27.8,09.4,0000.0,0003.03,0000.54,0000.41
2021-11-26 13:42:00,,0829.3,5.01,0.00,26.0,25.1,00.0,35.0,27.8,09.5,0000.0,0002.93,0000.53,0000.40
2021-11-26 13:43:00,,0829.4,4.99,0.00,26.0,25.1,00.0,35.0,27.8,09.4,0000.0,0002.95,0000.54,0000.40
2021-11-26 13:44:00,,0829.3,5.00,0.00,26.0,25.1,00.0,35.0,27.8,09.4,0000.0,0003.29,0000.55,0000.40
2021-11-26 13:45:00,,0829.3,5.01,0.00,26.0,25.1,00.0,35.0,27.8,09.4,0000.0,0004.63,0000.54,0000.39
2021-11-26 13:46:00,,0829.3,4.98,0.00,26.0,25.1,00.0,35.0,27.8,09.4,0000.0,0004.57,0000.53,0000.39
2021-11-26 13:47:00,,0829.3,5.01,0.00,26.0,25.1,00.0,35.0,27.8,09.4,0000.0,0004.54,0000.53,0000.39
2021-11-26 13:48:00,,0829.3,5.01,0.00,26.0,25.1,00.0,35.0,27.8,09.4,0000.0,0004.53,0000.52,0000.38
2021-11-26 13:49:00,,0829.3,5.00,0.00,26.0,25.1,00.0,35.0,27.7,09.4,0000.0,0004.32,0000.53,0000.38
2021-11-26 13:50:00,,0829.2,5.00,0.00,26.0,25.1,00.0,35.0,27.7,09.4,0000.0,0002.92,0000.52,0000.38
2021-11-26 13:51:00,,0829.2,5.00,0.00,26.0,25.1,00.0,35.0,27.8,09.4,0000.0,0002.99,0000.54,0000.38
2021-11-26 13:52:00,,0829.3,5.00,0.00,26.0,25.1,00.0,35.0,27.8,09.5,0000.0,0003.06,0000.58,0000.38
2021-11-26 13:53:00,,0829.3,4.99,0.00,26.0,25.1,00.0,35.0,27.8,09.5,0000.0,0003.08,0000.58,0000.39
2021-11-26 13:54:00,,0829.3,5.00,0.00,26.0,25.1,00.0,35.0,27.8,09.5,0000.0,0003.07,0000.58,0000.40
2021-11-26 13:55:00,,0829.3,5.00,0.00,26.0,25.1,00.0,35.0,27.8,09.5,0000.0,0002.96,0000.59,0000.39
2021-11-26 13:56:00,,0829.2,5.00,0.00,26.0,25.1,00.0,35.0,27.8,09.5,0000.0,0001.38,0000.58,0000.40
2021-11-26 13:57:00,,0829.3,4.99,0.00,26.0,25.1,00.0,35.0,27.8,09.5,0000.0,0001.37,0000.58,0000.40
2021-11-26 13:58:00,,0829.2,5.00,0.00,26.0,25.1,00.0,35.0,27.8,09.4,0000.0,0001.37,0000.59,0000.40
2021-11-26 13:59:00,,0829.2,4.99,0.00,26.0,25.1,00.0,35.0,27.8,09.4,0000.0,0001.32,0000.60,0000.40
